Regional Weather Roundup
Issued by NWS Albany, NY

Current Version | Previous Version | Text Only | Print | Product List | Glossary On
Versions: 1 2 3 4 5 6 7 8 9 10 11 12 13 14 15 16 17 18 19 20 21 22 23 24 25 26 27 28 29 30 31 32 33 34 35 36 37 38 39 40 41 42 43 44 45 46 47 48 49 50
399 ASUS41 KALY 281010 RWRALY NEW YORK STATE HOURLY WEATHER ROUNDUP NATIONAL WEATHER SERVICE ALBANY NY 500 AM EST TUE FEB 28 2017 NOTE: "FAIR" INDICATES FEW OR NO CLOUDS BELOW 12,000 FEET WITH NO SIGNIFICANT WEATHER AND/OR NO OBSTRUCTIONS TO VISIBILITY. NYZ032-033-038>043-046>054-057>066-NYZ062>081-082-084-281100- EAST CITY SKY/WX TMP DP RH WIND PRES REMARKS ALBANY CLOUDY 35 26 69 CALM 30.35F GLENS FALLS CLOUDY 34 24 67 CALM 30.35S POUGHKEEPSIE CLOUDY 37 31 78 CALM 30.35S NEWBURGH CLOUDY 39 34 81 CALM 30.36R MONTGOMERY CLOUDY 38 33 82 N3 30.34R WHITE PLAINS CLOUDY 41 32 70 SE3 30.35R ISLIP CLOUDY 43 40 89 CALM 30.36F NEW YORK CITY CLOUDY 46 35 65 E6 30.35F CENTRAL PARK CLOUDY 48 34 58 NE3 30.37F $$ NYZ005>009-017-018-044>046-055-056-281100- CENTRAL CITY SKY/WX TMP DP RH WIND PRES REMARKS FULTON CLOUDY 36 28 73 CALM 30.30S SYRACUSE CLOUDY 34 29 82 E5 30.29F WCI 30 ROME CLOUDY 33 29 85 CALM 30.33S ELMIRA LGT RAIN 38 34 85 CALM 30.28F BINGHAMTON CLOUDY 35 31 85 CALM 30.28R MONTICELLO CLOUDY N/A N/A N/A CALM 30.32S $$ NYZ026>034-041>043-087-281100- NORTH CITY SKY/WX TMP DP RH WIND PRES REMARKS WATERTOWN CLOUDY 33 29 85 E5 30.30S WCI 29 FORT DRUM NOT AVBL OGDENSBURG FAIR 24 23 97 CALM 30.33S MASSENA CLEAR 20 17 88 CALM 30.35S SARANAC LAKE CLOUDY 20 20 100 CALM 30.28R PLATTSBURGH CLEAR 27 24 89 CALM 30.35R $$ NYZ001>004-010>016-019>021-085-281100- WEST CITY SKY/WX TMP DP RH WIND PRES REMARKS NIAGARA FALLS CLOUDY 38 27 64 CALM 30.24F BUFFALO CLOUDY 37 27 67 SE5 30.24F WCI 33 DUNKIRK CLOUDY 34 31 88 E3 30.23F JAMESTOWN CLOUDY 36 32 87 S6 30.19F WCI 31 WELLSVILLE CLOUDY 40 34 79 S7 30.23F ROCHESTER CLOUDY 36 28 73 S3 30.28S PENN YAN CLOUDY 36 31 82 CALM 30.28R $$ KEY WCI = WIND CHILL INDEX VSB = VISIBILITY HX = HEAT INDEX $$

USA.gov is the U.S. government's official web portal to all federal, state and local government web resources and services.